{"data":{"norad_id":57913,"epoch":"2026-09-19T20:05:37.462560Z","epoch_age_seconds":191618,"freshness":"STALE","line1":"1 57913U 23147A   26262.83723915  .00000005  00000+0  97098-5 0  9990","line2":"2 57913  43.0037 308.4892 0001105 279.6470  80.4257 15.27576457166299","mean_motion":15.27576457,"eccentricity":0.0001105,"inclination_deg":43.0037,"raan_deg":308.4892,"arg_perigee_deg":279.647,"mean_anomaly_deg":80.4257,"bstar":9.7098e-6,"rev_number":16629,"period_min":94.266967352195,"perigee_km":482.30154284083,"apogee_km":483.81786731266,"semimajor_km":6861.1967050767,"source":"CELESTRAK","updated_at":"2026-09-21T09:00:33.740282Z"}}